Tracking 35237 objects as of 5-Sep-2026
HD Live streaming from Space Station
objects crossing your sky now

IRIDIUM 11


IRIDIUM 11 is no longer on orbit
IRIDIUM 11 is classified as:


NORAD ID: 25578
Int'l Code: 1998-074B
Launch date: December 19, 1998
Source: United States (US)
Launch site: Taiyaun Space Center, China (TSC)
Decay date: 2018-10-22
Your satellite tracking list
Your tracking list is empty




NASA's NSSDC Master Catalog

Two Line Element Set (TLE):
1 25578U 98074B   18295.22392449  .12158264 -12312-5  18093-3 0  9993
2 25578  86.4017  48.2970 0080065 282.3352  77.0276 16.37044354 48232
Source of the keplerian elements: AFSPC